Location: Shepherdstown, WV
(39.4326°N, 77.8042°W)
Time: 06:24:42
(UTC-04:00)

Vanguard 1 - Pass Details

Date: 09 August 2021
Orbit: 652 x 3831 km, 34.3° (Epoch: 24 September)

Event Time Altitude Azimuth Distance (km) Brightness Sun altitude
Rises 11:39:29 0° 262° (W) 2,966 12.3 58.1°
Reaches altitude 10° 11:41:43 10° 256° (WSW) 2,055 11.7 58.4°
Maximum altitude 11:45:59 47° 182° (S) 953 11.3 59.0°
Drops below altitude 10° 11:51:33 10° 109° (ESE) 2,671 12.9 59.8°
Sets 11:54:51 0° 104° (ESE) 3,986 13.5 60.2°
